This is the latest recevied weather packets stored in our database for station/object K1BWE-1. If no packets are shown the sender has not sent any weather packets the latest 10 day(s).
| Time | Temp. | Humidity | Pressure | Rain* | Wind** | Luminosity | Snow |
|---|---|---|---|---|---|---|---|
| 1777827729 | 26.67° C | 32% | 1015.8 hPa | 0 mm | - | 271 W/m² | - |
| 1777827426 | 27.22° C | 31% | 1016 hPa | 0 mm | - | 355 W/m² | - |
| 1777827123 | 26.67° C | 30% | 1016 hPa | 0 mm | - | 480 W/m² | - |
| 1777826819 | 27.22° C | 31% | 1016.1 hPa | 0 mm | - | 570 W/m² | - |
| 1777826516 | 27.22° C | 30% | 1016 hPa | 0 mm | - | 436 W/m² | - |
| 1777826212 | 27.78° C | 30% | 1015.9 hPa | 0 mm | - | 373 W/m² | - |
| 1777825910 | 27.22° C | 32% | 1016 hPa | 0 mm | - | 399 W/m² | - |
| 1777825607 | 26.67° C | 34% | 1015.8 hPa | 0 mm | - | 421 W/m² | - |
| 1777825305 | 26.67° C | 31% | 1016 hPa | 0 mm | - | 423 W/m² | - |
| 1777825002 | 26.11° C | 31% | 1015.9 hPa | 0 mm | - | 409 W/m² | - |
| 1777824697 | 27.22° C | 30% | 1015.8 hPa | 0 mm | - | 479 W/m² | - |
| 1777824395 | 26.67° C | 32% | 1016 hPa | 0 mm | - | 510 W/m² | - |
| 1777824090 | 26.11° C | 31% | 1016 hPa | 0 mm | - | 491 W/m² | - |
| 1777823787 | 25.56° C | 32% | 1016 hPa | 0 mm | - | 354 W/m² | - |
| 1777823484 | 25° C | 33% | 1016 hPa | 0 mm | - | 368 W/m² | - |
| 1777823181 | 25.56° C | 34% | 1015.8 hPa | 0 mm | - | 269 W/m² | - |
| 1777822879 | 25° C | 39% | 1015.8 hPa | 0 mm | - | 253 W/m² | - |
| 1777822577 | 25.56° C | 33% | 1015.9 hPa | 0 mm | - | 307 W/m² | - |
| 1777822274 | 25° C | 35% | 1016.2 hPa | 0 mm | - | 321 W/m² | - |
| 1777821972 | 24.44° C | 34% | 1016 hPa | 0 mm | - | 380 W/m² | - |
| 1777821670 | 24.44° C | 36% | 1016 hPa | 0 mm | - | 205 W/m² | - |
| 1777821367 | 23.33° C | 36% | 1016 hPa | 0 mm | - | 229 W/m² | - |
| 1777821063 | 22.78° C | 38% | 1015.9 hPa | 0 mm | - | 203 W/m² | - |
| 1777820760 | 22.78° C | 38% | 1016.2 hPa | 0 mm | - | 173 W/m² | - |
| 1777820456 | 22.78° C | 39% | 1016.1 hPa | 0 mm | - | 154 W/m² | - |
* Rain latest hour (hover to see other rain measurements)
** Current wind speed in m/s (hover to see current wind gust speed)